User: anonymous   Login
Location: Unspecified
(0.0000°N, 0.0000°E)
Time: 22:45:34
(UTC+00:00)
Language:

STARLINK-36059 - Orbit

View from above orbital plane
View from above orbital plane
View from above satellite
View from above satellite

Ground track
Ground track

The orbit is defined by the following mean orbital elements,

1 66904U          26145.58335647 +.00000000 +00000-0 +16607-2 0 00009
2 66904  53.1590  26.9413 0000903  95.8922  51.9132 15.30169810    07
Epoch (UTC): 25 May 2026 14:00:01
Eccentricity: 0.0000903
inclination: 53.1590°
perigee height: 475 km
apogee height: 476 km
right ascension of ascending node: 26.9413°
argument of perigee: 95.8922°
revolutions per day: 15.30169810
mean anomaly at epoch: 51.9132°

The dashed part of the orbit path shows where the satellite is in the earth's shadow,  

DLR